Portada
METAR-TAF:

METAR-TAF

Aeropuertos :

Illinois Valley Regional Airport (Walter A. Duncan Field)

Peru / LaSalle, Illinois, Estados Unidos

latitud: 41-21-07N, longitud: 089-09-11W, altitud: 199 m

Observación

El informe se hizo hace 23 minutos, a las 03:15 UTC
Viento calma
Temperatura 19°C
Humedad 94%
Presión 1017 hPa
Visibilidad: 16.1 km
Cielo despejado

METAR: KVYS 230315Z AUTO 00000KT 10SM CLR 19/18 A3002 RMK AO2 T01910181

Hora: 22:38 (03:38 UTC)


TAF: falta

Observaciones y pronósticos meteorológicos de más de 4000 aeropuertos (mensajes METAR y TAF).

Los puntos amarillos y rojos representan las estaciones disponibles.

Ponga el ratón en el punto deseado para ver el nombre de la estación.

Haga clic para ver las observaciones y los pronósticos meteorológicos.

Para cambiar el mapa : haga clic en los botones verdes con una cruz de color negro para hacer un zoom, en el botón verde con un guión para alejar o en las flechas verdes para mapas adyacentes.


METAR-TAF: